Spokane Fairchild, WA

2:09 AM PST on December 16, 2017 (GMT -0800)
Fairchild Air Force Base

Weather History for KSKA - May, 2014

Change the Weather History Date:

Thursday, May 1, 2014

  Actual Average Record
Temperature  
Mean Temperature 58 °F -  
Max Temperature 75 °F 58 °F 80 °F (1998)
Min Temperature 42 °F 36 °F 27 °F (2008)
Degree Days  
Heating Degree Days 6    
Growing Degree Days 8 (Base 50)    
Moisture  
Dew Point 38 °F    
Average Humidity 46    
Maximum Humidity 81    
Minimum Humidity 24    
Precipitation  
Precipitation 0.00 in - - ()
Sea Level Pressure  
Sea Level Pressure 30.16 in    
Wind  
Wind Speed 5 mph (ESE)    
Max Wind Speed 10 mph    
Max Gust Speed -    
Visibility 10 miles    
Events      
Averages and records for this station are not official NWS values.
T = Trace of Precipitation, MM = Missing Value Source: NWS Daily Summary

Daily Weather History Graph

Daily Weather History Graph

Search for Another Location

Airport or City:

Trip Planner

Search our weather history database for the weather conditions in past years. The results will help you decide how hot, cold, wet, or windy it might be!

Date:

Astronomy

May. 01, 2014 Rise Set
Actual Time 5:33 AM PDT 8:02 PM PDT
Civil Twilight 4:58 AM PDT 8:37 PM PDT
Nautical Twilight 4:15 AM PDT 9:21 PM PDT
Astronomical Twilight 3:25 AM PDT 10:11 PM PDT
Moon 7:20 AM PDT (5/1) 10:44 PM PDT (5/1)
Length of Visible Light 15h 38m
Length of Day
14h 29m
Waxing Crescent, 7% of the Moon is Illuminated
May 1
Waxing Crescent
May 6
First Quarter
May 14
Full
May 21
Last Quarter
May 28
New

Hourly Weather History & Observations

Time (PDT) Temp. Windchill Dew Point Humidity Pressure Visibility Wind Dir Wind Speed Gust Speed Precip Events Conditions
12:58 AM 48.2 °F - 30.7 °F 51% 30.29 in 10.0 mi NW 2.3 mph - N/A   Clear
1:58 AM 47.1 °F - 28.9 °F 49% 30.28 in 10.0 mi Calm Calm - N/A   Clear
2:58 AM 48.4 °F - 27.9 °F 45% 30.26 in 10.0 mi NNE 4.6 mph - N/A   Clear
3:58 AM 46.6 °F - 37.0 °F 69% 30.27 in 10.0 mi NE 6.9 mph - N/A   Clear
4:58 AM 45.0 °F 42.6 °F 37.9 °F 76% 30.27 in 10.0 mi ENE 4.6 mph - N/A   Clear
5:58 AM 42.8 °F 38.6 °F 37.4 °F 81% 30.26 in 10.0 mi NE 6.9 mph - N/A   Clear
6:58 AM 48.9 °F - 39.6 °F 70% 30.25 in 10.0 mi ENE 9.2 mph - N/A   Clear
7:58 AM 53.4 °F - 40.3 °F 61% 30.24 in 10.0 mi ENE 10.4 mph - N/A   Clear
8:58 AM 57.0 °F - 41.0 °F 55% 30.23 in 10.0 mi ENE 9.2 mph - N/A   Clear
9:58 AM 60.6 °F - 41.7 °F 50% 30.22 in 10.0 mi East 5.8 mph - N/A   Clear
10:58 AM 64.4 °F - 42.3 °F 44% 30.21 in 10.0 mi ENE 4.6 mph - N/A   Clear
11:58 AM 68.2 °F - 40.8 °F 37% 30.19 in 10.0 mi Variable 3.5 mph - 0.00 in   Clear
12:58 PM 70.9 °F - 41.7 °F 35% 30.17 in 10.0 mi Variable 3.5 mph - N/A   Clear
1:58 PM 73.6 °F - 40.8 °F 31% 30.14 in 10.0 mi Variable 3.5 mph - 0.00 in   Clear
2:58 PM 75.2 °F - 39.0 °F 27% 30.12 in 10.0 mi Variable 3.5 mph - 0.00 in   Clear
3:58 PM 75.9 °F - 36.1 °F 24% 30.10 in 10.0 mi South 9.2 mph - N/A   Clear
4:58 PM 75.0 °F - 35.2 °F 24% 30.09 in 10.0 mi SW 10.4 mph - N/A   Clear
5:58 PM 74.3 °F - 36.7 °F 25% 30.07 in 10.0 mi SSW 9.2 mph - N/A   Clear
6:58 PM 69.3 °F - 40.1 °F 35% 30.04 in 10.0 mi South 5.8 mph - N/A   Clear
7:58 PM 67.1 °F - 36.7 °F 33% 30.02 in 10.0 mi South 6.9 mph - N/A   Clear
8:58 PM 64.2 °F - 37.6 °F 37% 30.01 in 10.0 mi South 6.9 mph - N/A   Clear
9:58 PM 59.4 °F - 39.2 °F 47% 30.01 in 10.0 mi WSW 9.2 mph - N/A   Clear
10:58 PM 59.9 °F - 38.5 °F 45% 30.00 in 10.0 mi SW 3.5 mph - N/A   Clear
11:58 PM 59.7 °F - 37.2 °F 43% 29.99 in 10.0 mi West 1.2 mph - N/A   Clear